Tracking 19846 objects as of 19-Sep-2019
HD Live streaming from Space Station
objects crossing your sky now

MOVE-IIB

Track MOVE-IIB now!
10-day predictions
MOVE-IIB is classified as:


NORAD ID: 44398
Int'l Code: 2019-038N
Perigee: 520.6 km
Apogee: 555.7 km
Inclination: 97.5 °
Period: 95.3 minutes
Semi major axis: 6909 km
RCS: Unknown
Launch date: July 5, 2019
Source: (TBD)
Launch site: VOSTOCHNY COSMODROME (VOSTO)

Uplink (MHz):
Downlink (MHz): 145.840
Beacon (MHz):
Mode: 12k5bps QPSK
Call sign:
Status: Unknown

aabbcc
Your satellite tracking list
Your tracking list is empty




NASA's NSSDC Master Catalog

Two Line Element Set (TLE):
1 44398U 19038N   19261.83018215 +.00001261 +00000-0 +77402-4 0  9990
2 44398 097.4971 222.3156 0025419 350.5214 009.5533 15.11690835011386
Source of the keplerian elements: AFSPC